Flag for Afghanistan Weather past 2 weeks in Mazari Sharif, Afghanistan

70 °F


Feels Like: 70 °F
Forecast: 59 / 92 °F
Wind: 3 mph from Southwest

Location: Termez Airport

Current Time: Oct 6, 2015 at 8:52:31 PM

Latest Report: Oct 6, 2015 at 8:00 PM

Visibility: 10 mi

Pressure: 29.92 "Hg

Humidity: 40%

Dew point: 45 °F

Location of Mazari SharifLocation

Historic Weather in Mazari Sharif — Graph


Mazari Sharif temperature yesterday

Maximum temperature yesterday: 86 °F (at 2:00 PM)
Minimum temperature yesterday: 59 °F (at 4:30 AM)
Average temperature yesterday: 73 °F

Past Weeks' High & Low Weather Summary

High90 °F (Sep 23, 4:00 PM)88% (Oct 6, 6:30 AM)30.18 "Hg (Oct 6, 6:30 AM)
Low48 °F (Sep 29, 6:00 AM)11% (Sep 25, 12:30 PM)29.80 "Hg (Sep 22, 3:00 PM)
Average72 °F38%30.02 "Hg
* Reported Sep 21 7:30 PM — Oct 6 7:30 PM, Mazari Sharif, Weather by CustomWeather, © 2015

Note: Actual official high and low records may vary slightly from our data, if they occured in-between our weather recording intervals... More about our weather records


Mazari Sharif weather history for previous 24 hours

Time TempWeatherWind HumidityBarometerVisibility
7:30 PM
Tue, Oct 6
70 °FClear.7 mph40%29.92 "Hg10 mi
7:00 PM72 °FClear.8 mph41%29.89 "Hg10 mi
6:30 PM73 °FClear.5 mph38%29.89 "Hg10 mi
6:00 PM77 °FClear.3 mph36%29.89 "Hg10 mi
5:30 PM81 °FSunny.3 mph30%29.89 "Hg10 mi
5:00 PM82 °FSunny.5 mph28%29.89 "Hg10 mi
4:30 PM84 °FSunny.5 mph27%29.89 "Hg10 mi
4:00 PM86 °FSunny.5 mph25%29.89 "Hg10 mi
3:30 PM88 °FPassing clouds.3 mph22%29.89 "HgN/A
3:00 PM88 °FPassing clouds.3 mph21%29.89 "HgN/A
2:30 PM88 °FPassing clouds.3 mph21%29.89 "HgN/A
2:00 PM86 °FPassing clouds.2 mph24%29.92 "HgN/A
1:30 PM86 °FPassing clouds.5 mph24%29.92 "HgN/A
1:00 PM86 °FPassing clouds.3 mph24%29.95 "HgN/A
12:30 PM84 °FPassing clouds.3 mph27%29.95 "HgN/A
12:00 PM82 °FSunny.2 mph32%29.95 "Hg10 mi
11:30 AM82 °FSunny.1 mph28%29.98 "Hg10 mi
11:00 AM81 °FSunny.2 mph32%29.98 "Hg10 mi
10:30 AM77 °FSunny.1 mph42%30.01 "Hg10 mi
10:00 AM75 °FPassing clouds.1 mph41%30.01 "HgN/A
9:30 AM73 °FPassing clouds.3 mph44%30.01 "HgN/A
9:00 AM72 °FPassing clouds.3 mph47%30.01 "HgN/A
8:30 AM68 °FPassing clouds.2 mph56%30.01 "HgN/A
8:00 AM66 °FPassing clouds.1 mph64%30.01 "HgN/A
7:30 AM61 °FSunny.No wind72%30.01 "Hg10 mi
7:00 AM57 °FSunny.No wind82%30.01 "Hg10 mi
6:30 AM54 °FSunny.No wind88%29.98 "Hg10 mi
6:00 AM55 °FSunny.1 mph82%29.98 "Hg10 mi
5:30 AM57 °FClear.3 mph77%29.98 "Hg10 mi
4:30 AM57 °FClear.No wind77%29.98 "Hg10 mi
3:30 AM57 °FPassing clouds.2 mph77%29.98 "HgN/A
2:30 AM59 °FClear.No wind72%29.98 "Hg10 mi
1:30 AM61 °FClear.2 mph68%30.01 "Hg4 mi
12:30 AM63 °FClear.2 mph68%29.98 "Hg5 mi
11:30 PM
Mon, Oct 5
64 °FClear.2 mph60%30.01 "Hg4 mi
10:30 PM64 °FClear.No wind64%30.01 "Hg4 mi
10:00 PM64 °FHaze.2 mph68%30.01 "Hg3 mi
9:30 PM66 °FClear.3 mph60%30.01 "Hg5 mi
9:00 PM68 °FClear.No wind56%30.01 "Hg10 mi
8:30 PM72 °FClear.1 mph50%30.01 "Hg10 mi
8:00 PM70 °FClear.No wind57%30.01 "Hg10 mi
Weather by CustomWeather, © 2015

See weather overviewHow to use our weather pages